QPF
0.05 0.06 0.05 0.02 0.01 0.01 0.01 0.01 0.01 0.00 0.00 0.00 0.00 0.00 0.00 0.00 0.00 0.00 0.00 0.00 0.00 0.00 0.01 0.01 0.02 0.03 0.03 0.02 0.02 0.02 0.02 0.01 0.01 0.02 0.01 0.01 0.01 0.02 0.03 0.03 0.03 0.02 0.02 0.02
0.06 0.04 0.02 0.01 0.01 0.01 0.01 0.01 0.01 0.01 0.00 0.00 0.00 0.00 0.00 0.00 0.00 0.00 0.00 0.00 0.00 0.00 0.00 0.01 0.03 0.03 0.03 0.01 0.01 0.02 0.01 0.01 0.01 0.01 0.02 0.03 0.03 0.04 0.03 0.03 0.04 0.03 0.02 0.02
0.04 0.02 0.01 0.01 0.02 0.02 0.02 0.02 0.01 0.01 0.01 0.01 0.00 0.00 0.00 0.00 0.00 0.00 0.00 0.00 0.00 0.00 0.00 0.01 0.02 0.03 0.03 0.02 0.02 0.02 0.01 0.01 0.01 0.01 0.01 0.01 0.02 0.02 0.02 0.01 0.01 0.01 0.02 0.02
0.02 0.01 0.02 0.02 0.02 0.01 0.02 0.02 0.01 0.01 0.01 0.01 0.01 0.01 0.00 0.00 0.00 0.00 0.00 0.00 0.00 0.00 0.00 0.01 0.02 0.02 0.02 0.01 0.01 0.02 0.02 0.01 0.01 0.00 0.00 0.00 0.00 0.00 0.01 0.01 0.00 0.00 0.00 0.00
0.04 0.02 0.02 0.02 0.02 0.01 0.01 0.01 0.02 0.02 0.02 0.02 0.01 0.00 0.00 0.00 0.00 0.00 0.00 0.00 0.00 0.00 0.00 0.01 0.01 0.01 0.01 0.01 0.01 0.02 0.02 0.01 0.01 0.01 0.00 0.00 0.00 0.00 0.00 0.01 0.00 0.00 0.00 0.00
0.02 0.02 0.03 0.02 0.01 0.01 0.00 0.01 0.03 0.03 0.04 0.04 0.01 0.00 0.00 0.00 0.00 0.00 0.00 0.00 0.00 0.00 0.00 0.01 0.01 0.01 0.02 0.02 0.01 0.01 0.01 0.01 0.01 0.00 0.00 0.00 0.00 0.00 0.00 0.00 0.00 0.00 0.00 0.00
0.03 0.03 0.03 0.02 0.03 0.03 0.01 0.01 0.04 0.06 0.06 0.03 0.01 0.00 0.00 0.00 0.00 0.00 0.00 0.00 0.00 0.00 0.00 0.00 0.00 0.01 0.02 0.02 0.01 0.01 0.01 0.01 0.00 0.00 0.00 0.00 0.00 0.00 0.00 0.00 0.00 0.00 0.00 0.00
0.04 0.05 0.03 0.02 0.03 0.03 0.01 0.01 0.01 0.02 0.02 0.01 0.00 0.01 0.00 0.00 0.00 0.00 0.00 0.00 0.00 0.00 0.00 0.00 0.00 0.01 0.02 0.03 0.02 0.01 0.01 0.00 0.00 0.00 0.00 0.00 0.00 0.00 0.00 0.00 0.00 0.00 0.00 0.00
0.02 0.04 0.02 0.01 0.01 0.01 0.01 0.01 0.01 0.01 0.01 0.01 0.00 0.00 0.00 0.00 0.00 0.00 0.00 0.00 0.00 0.00 0.00 0.00 0.00 0.00 0.02 0.03 0.03 0.01 0.01 0.00 0.00 0.00 0.00 0.00 0.00 0.00 0.00 0.00 0.00 0.00 0.00 0.00
0.01 0.03 0.03 0.02 0.01 0.01 0.01 0.01 0.01 0.01 0.01 0.01 0.01 0.00 0.00 0.00 0.00 0.00 0.00 0.00 0.00 0.00 0.00 0.00 0.00 0.00 0.01 0.03 0.04 0.02 0.01 0.00 0.00 0.00 0.00 0.00 0.00 0.00 0.00 0.00 0.00 0.00 0.00 0.00
0.01 0.02 0.04 0.03 0.03 0.02 0.01 0.02 0.02 0.02 0.01 0.01 0.01 0.00 0.00 0.00 0.00 0.00 0.00 0.00 0.00 0.00 0.00 0.00 0.00 0.00 0.02 0.03 0.03 0.02 0.01 0.00 0.00 0.00 0.00 0.00 0.00 0.00 0.00 0.00 0.00 0.00 0.00 0.00
0.02 0.01 0.03 0.02 0.01 0.01 0.01 0.01 0.01 0.02 0.02 0.01 0.01 0.01 0.00 0.00 0.00 0.00 0.00 0.00 0.00 0.00 0.00 0.00 0.00 0.00 0.02 0.03 0.03 0.02 0.01 0.00 0.00 0.00 0.00 0.00 0.00 0.00 0.00 0.00 0.00 0.00 0.00 0.00
0.05 0.02 0.03 0.04 0.03 0.01 0.01 0.01 0.01 0.01 0.02 0.01 0.01 0.01 0.00 0.00 0.00 0.00 0.00 0.00 0.00 0.00 0.00 0.00 0.00 0.00 0.01 0.03 0.03 0.02 0.01 0.00 0.00 0.00 0.00 0.00 0.00 0.00 0.00 0.00 0.00 0.00 0.00 0.00
0.05 0.03 0.01 0.02 0.01 0.01 0.01 0.01 0.01 0.01 0.02 0.01 0.01 0.01 0.00 0.00 0.00 0.00 0.00 0.00 0.00 0.01 0.00 0.00 0.00 0.00 0.01 0.03 0.04 0.02 0.01 0.00 0.00 0.00 0.00 0.00 0.00 0.00 0.00 0.00 0.01 0.01 0.00 0.00
0.03 0.03 0.01 0.01 0.00 0.00 0.00 0.00 0.00 0.01 0.01 0.01 0.01 0.00 0.01 0.00 0.00 0.00 0.00 0.00 0.00 0.01 0.01 0.01 0.01 0.01 0.01 0.03 0.04 0.03 0.01 0.00 0.00 0.00 0.00 0.00 0.00 0.00 0.01 0.00 0.01 0.01 0.00 0.00
0.03 0.03 0.01 0.01 0.00 0.00 0.00 0.00 0.00 0.00 0.00 0.00 0.00 0.01 0.01 0.00 0.00 0.00 0.00 0.00 0.00 0.01 0.01 0.01 0.01 0.01 0.01 0.03 0.03 0.02 0.01 0.01 0.00 0.00 0.00 0.00 0.00 0.00 0.01 0.01 0.01 0.01 0.00 0.00
0.03 0.02 0.02 0.02 0.01 0.01 0.01 0.02 0.01 0.01 0.01 0.01 0.01 0.02 0.01 0.00 0.00 0.00 0.00 0.00 0.00 0.00 0.01 0.01 0.01 0.02 0.02 0.03 0.04 0.03 0.02 0.01 0.00 0.00 0.00 0.00 0.01 0.01 0.01 0.01 0.01 0.01 0.00 0.00
0.03 0.03 0.02 0.02 0.02 0.03 0.02 0.02 0.01 0.01 0.01 0.01 0.02 0.01 0.01 0.00 0.00 0.00 0.00 0.00 0.00 0.00 0.01 0.01 0.01 0.01 0.02 0.03 0.04 0.04 0.03 0.02 0.01 0.01 0.01 0.01 0.01 0.01 0.01 0.01 0.01 0.01 0.00 0.00
0.01 0.03 0.03 0.03 0.02 0.02 0.01 0.01 0.02 0.01 0.01 0.01 0.01 0.01 0.01 0.01 0.01 0.01 0.01 0.00 0.00 0.00 0.01 0.01 0.01 0.01 0.02 0.03 0.03 0.04 0.03 0.03 0.03 0.02 0.02 0.02 0.01 0.01 0.01 0.01 0.01 0.01 0.01 0.00
0.01 0.02 0.04 0.03 0.02 0.01 0.01 0.01 0.01 0.01 0.02 0.02 0.01 0.02 0.02 0.02 0.02 0.02 0.02 0.01 0.01 0.01 0.01 0.02 0.03 0.02 0.03 0.02 0.02 0.02 0.02 0.02 0.03 0.03 0.04 0.03 0.03 0.02 0.01 0.01 0.01 0.01 0.01 0.01
0.02 0.03 0.04 0.03 0.02 0.02 0.01 0.01 0.01 0.02 0.02 0.02 0.02 0.03 0.03 0.03 0.03 0.03 0.02 0.02 0.01 0.01 0.02 0.03 0.04 0.04 0.04 0.03 0.02 0.02 0.01 0.01 0.02 0.02 0.03 0.04 0.04 0.04 0.02 0.01 0.01 0.01 0.01 0.01
0.02 0.02 0.03 0.03 0.03 0.02 0.01 0.01 0.01 0.02 0.02 0.02 0.03 0.04 0.04 0.03 0.03 0.03 0.02 0.02 0.02 0.01 0.02 0.02 0.04 0.04 0.05 0.04 0.03 0.02 0.01 0.01 0.01 0.02 0.02 0.03 0.04 0.04 0.03 0.02 0.02 0.01 0.01 0.02
0.02 0.02 0.02 0.02 0.03 0.03 0.02 0.02 0.02 0.02 0.02 0.02 0.02 0.03 0.03 0.03 0.03 0.03 0.02 0.02 0.03 0.02 0.02 0.03 0.03 0.04 0.04 0.04 0.03 0.02 0.01 0.01 0.01 0.01 0.01 0.02 0.02 0.03 0.03 0.03 0.03 0.02 0.02 0.02
0.02 0.02 0.02 0.03 0.03 0.03 0.03 0.02 0.02 0.02 0.02 0.02 0.02 0.03 0.03 0.02 0.03 0.03 0.02 0.02 0.02 0.03 0.03 0.03 0.03 0.04 0.04 0.04 0.04 0.03 0.02 0.01 0.01 0.01 0.01 0.01 0.02 0.02 0.02 0.02 0.02 0.02 0.01 0.01
0.02 0.01 0.02 0.02 0.03 0.03 0.02 0.02 0.02 0.02 0.02 0.02 0.02 0.02 0.02 0.01 0.02 0.02 0.02 0.02 0.02 0.03 0.03 0.03 0.03 0.03 0.03 0.03 0.03 0.02 0.02 0.01 0.01 0.01 0.01 0.02 0.02 0.02 0.02 0.01 0.02 0.01 0.01 0.01
0.02 0.02 0.02 0.02 0.02 0.02 0.02 0.03 0.02 0.01 0.01 0.01 0.01 0.01 0.01 0.01 0.01 0.02 0.02 0.02 0.02 0.02 0.02 0.02 0.02 0.02 0.02 0.02 0.02 0.02 0.01 0.01 0.01 0.02 0.02 0.02 0.02 0.02 0.02 0.01 0.01 0.01 0.01 0.01
MSLP
1008.33 1007.96 1007.76 1007.78 1008.01 1008.42 1008.94 1009.45 1009.87 1010.12 1010.16 1009.98 1009.61 1009.14 1008.63 1008.19 1007.87 1007.72 1007.75 1007.95 1008.27 1008.68 1009.15 1009.65 1010.18 1010.72 1011.30 1011.93 1012.59 1013.30 1014.03 1014.75 1015.44 1016.09 1016.68 1017.20 1017.66 1018.08 1018.47 1018.84 1019.19 1019.54 1019.86 1020.16
1007.29 1006.93 1006.78 1006.86 1007.17 1007.65 1008.23 1008.79 1009.23 1009.48 1009.52 1009.33 1008.98 1008.54 1008.09 1007.74 1007.53 1007.49 1007.62 1007.89 1008.26 1008.67 1009.10 1009.52 1009.94 1010.38 1010.85 1011.40 1012.01 1012.70 1013.44 1014.20 1014.94 1015.65 1016.30 1016.88 1017.39 1017.86 1018.29 1018.71 1019.11 1019.51 1019.88 1020.21
1006.31 1006.01 1005.93 1006.10 1006.48 1007.02 1007.63 1008.19 1008.63 1008.86 1008.88 1008.69 1008.38 1008.00 1007.67 1007.44 1007.37 1007.47 1007.71 1008.06 1008.44 1008.82 1009.16 1009.46 1009.74 1010.03 1010.37 1010.81 1011.35 1012.01 1012.75 1013.55 1014.35 1015.12 1015.83 1016.47 1017.04 1017.55 1018.04 1018.50 1018.95 1019.39 1019.80 1020.18
1005.47 1005.27 1005.30 1005.56 1006.01 1006.58 1007.18 1007.71 1008.10 1008.29 1008.28 1008.11 1007.85 1007.57 1007.38 1007.32 1007.42 1007.67 1008.03 1008.43 1008.81 1009.13 1009.35 1009.50 1009.60 1009.72 1009.91 1010.23 1010.69 1011.31 1012.05 1012.87 1013.72 1014.54 1015.31 1016.00 1016.62 1017.17 1017.69 1018.19 1018.69 1019.17 1019.63 1020.04
1004.83 1004.76 1004.91 1005.25 1005.74 1006.31 1006.87 1007.33 1007.64 1007.77 1007.73 1007.58 1007.40 1007.25 1007.23 1007.36 1007.65 1008.06 1008.53 1008.98 1009.34 1009.58 1009.67 1009.64 1009.56 1009.50 1009.53 1009.72 1010.11 1010.68 1011.41 1012.25 1013.13 1013.99 1014.79 1015.51 1016.16 1016.74 1017.29 1017.82 1018.34 1018.86 1019.35 1019.81
1004.44 1004.50 1004.74 1005.14 1005.63 1006.16 1006.64 1007.00 1007.21 1007.27 1007.21 1007.10 1007.02 1007.04 1007.20 1007.55 1008.04 1008.61 1009.18 1009.67 1010.01 1010.15 1010.10 1009.90 1009.64 1009.40 1009.29 1009.37 1009.67 1010.19 1010.91 1011.74 1012.63 1013.51 1014.32 1015.06 1015.71 1016.30 1016.85 1017.39 1017.93 1018.48 1019.00 1019.49
1004.30 1004.45 1004.74 1005.15 1005.60 1006.05 1006.41 1006.65 1006.76 1006.76 1006.70 1006.65 1006.70 1006.90 1007.28 1007.84 1008.53 1009.27 1009.94 1010.46 1010.77 1010.82 1010.63 1010.28 1009.85 1009.47 1009.23 1009.20 1009.43 1009.91 1010.59 1011.41 1012.29 1013.15 1013.95 1014.67 1015.30 1015.88 1016.42 1016.96 1017.50 1018.06 1018.61 1019.14
1004.41 1004.58 1004.86 1005.21 1005.58 1005.89 1006.12 1006.23 1006.25 1006.20 1006.17 1006.21 1006.41 1006.81 1007.42 1008.21 1009.10 1009.98 1010.75 1011.30 1011.57 1011.54 1011.24 1010.75 1010.20 1009.70 1009.36 1009.25 1009.42 1009.85 1010.50 1011.29 1012.13 1012.95 1013.71 1014.39 1014.98 1015.52 1016.03 1016.55 1017.09 1017.65 1018.22 1018.77
1004.73 1004.84 1005.04 1005.27 1005.49 1005.65 1005.73 1005.72 1005.66 1005.60 1005.62 1005.78 1006.16 1006.77 1007.61 1008.61 1009.68 1010.70 1011.54 1012.11 1012.36 1012.27 1011.89 1011.31 1010.67 1010.09 1009.68 1009.52 1009.65 1010.04 1010.64 1011.38 1012.17 1012.93 1013.62 1014.23 1014.76 1015.25 1015.72 1016.21 1016.73 1017.29 1017.87 1018.43
1005.21 1005.19 1005.23 1005.30 1005.34 1005.33 1005.26 1005.14 1005.03 1004.98 1005.08 1005.39 1005.95 1006.77 1007.81 1009.01 1010.24 1011.37 1012.28 1012.87 1013.10 1012.97 1012.54 1011.92 1011.23 1010.62 1010.18 1010.00 1010.09 1010.45 1011.01 1011.68 1012.40 1013.08 1013.69 1014.22 1014.67 1015.09 1015.51 1015.96 1016.46 1017.00 1017.57 1018.14
1005.81 1005.61 1005.45 1005.32 1005.17 1004.98 1004.78 1004.58 1004.44 1004.43 1004.62 1005.07 1005.80 1006.80 1008.03 1009.38 1010.73 1011.94 1012.90 1013.52 1013.75 1013.62 1013.18 1012.56 1011.88 1011.27 1010.85 1010.67 1010.75 1011.07 1011.57 1012.18 1012.81 1013.40 1013.91 1014.35 1014.72 1015.06 1015.42 1015.82 1016.28 1016.80 1017.35 1017.90
1006.49 1006.08 1005.72 1005.38 1005.05 1004.71 1004.40 1004.14 1003.99 1004.03 1004.31 1004.88 1005.75 1006.89 1008.25 1009.71 1011.14 1012.41 1013.40 1014.04 1014.30 1014.19 1013.79 1013.21 1012.59 1012.04 1011.65 1011.49 1011.58 1011.87 1012.32 1012.85 1013.38 1013.87 1014.28 1014.61 1014.90 1015.16 1015.45 1015.79 1016.21 1016.68 1017.19 1017.70
1007.20 1006.61 1006.07 1005.56 1005.08 1004.63 1004.23 1003.93 1003.79 1003.87 1004.22 1004.88 1005.84 1007.06 1008.49 1010.00 1011.46 1012.75 1013.77 1014.44 1014.74 1014.69 1014.38 1013.89 1013.36 1012.90 1012.59 1012.47 1012.56 1012.83 1013.22 1013.67 1014.10 1014.48 1014.78 1015.02 1015.21 1015.39 1015.60 1015.88 1016.23 1016.64 1017.10 1017.56
1007.93 1007.21 1006.54 1005.91 1005.33 1004.80 1004.36 1004.04 1003.91 1004.02 1004.40 1005.09 1006.08 1007.33 1008.76 1010.26 1011.71 1013.00 1014.03 1014.74 1015.11 1015.16 1014.96 1014.61 1014.22 1013.87 1013.65 1013.59 1013.69 1013.93 1014.26 1014.62 1014.95 1015.22 1015.42 1015.55 1015.64 1015.74 1015.88 1016.08 1016.35 1016.69 1017.07 1017.45
1008.66 1007.87 1007.14 1006.46 1005.83 1005.28 1004.82 1004.51 1004.38 1004.49 1004.87 1005.54 1006.50 1007.71 1009.08 1010.53 1011.94 1013.21 1014.25 1015.00 1015.46 1015.63 1015.58 1015.39 1015.15 1014.94 1014.82 1014.82 1014.93 1015.15 1015.41 1015.68 1015.91 1016.07 1016.17 1016.20 1016.21 1016.22 1016.28 1016.40 1016.58 1016.83 1017.12 1017.41
1009.38 1008.60 1007.87 1007.19 1006.58 1006.04 1005.59 1005.28 1005.15 1005.24 1005.59 1006.21 1007.09 1008.20 1009.48 1010.84 1012.18 1013.42 1014.47 1015.28 1015.84 1016.15 1016.27 1016.25 1016.17 1016.10 1016.08 1016.13 1016.26 1016.44 1016.64 1016.82 1016.95 1017.02 1017.02 1016.97 1016.89 1016.83 1016.80 1016.83 1016.93 1017.07 1017.26 1017.45
1010.09 1009.36 1008.68 1008.06 1007.50 1007.00 1006.59 1006.29 1006.16 1006.21 1006.50 1007.03 1007.81 1008.80 1009.96 1011.22 1012.49 1013.69 1014.75 1015.62 1016.29 1016.74 1017.02 1017.18 1017.25 1017.31 1017.38 1017.48 1017.61 1017.75 1017.89 1018.00 1018.04 1018.02 1017.95 1017.82 1017.68 1017.55 1017.45 1017.40 1017.40 1017.44 1017.52 1017.60
1010.77 1010.13 1009.54 1009.00 1008.50 1008.06 1007.69 1007.42 1007.27 1007.29 1007.51 1007.95 1008.62 1009.49 1010.54 1011.70 1012.89 1014.06 1015.13 1016.06 1016.82 1017.41 1017.84 1018.14 1018.35 1018.51 1018.65 1018.78 1018.91 1019.02 1019.10 1019.14 1019.12 1019.04 1018.91 1018.74 1018.55 1018.37 1018.21 1018.09 1018.00 1017.95 1017.92 1017.90
1011.42 1010.87 1010.37 1009.91 1009.49 1009.11 1008.78 1008.52 1008.37 1008.37 1008.53 1008.89 1009.47 1010.24 1011.18 1012.26 1013.39 1014.53 1015.62 1016.59 1017.43 1018.12 1018.67 1019.08 1019.39 1019.63 1019.82 1019.97 1020.08 1020.16 1020.20 1020.19 1020.13 1020.02 1019.85 1019.66 1019.45 1019.24 1019.05 1018.88 1018.72 1018.59 1018.47 1018.36
1012.06 1011.59 1011.15 1010.76 1010.39 1010.06 1009.76 1009.52 1009.37 1009.35 1009.47 1009.78 1010.29 1010.99 1011.87 1012.88 1013.97 1015.09 1016.17 1017.18 1018.07 1018.83 1019.45 1019.93 1020.31 1020.59 1020.80 1020.96 1021.06 1021.12 1021.13 1021.10 1021.02 1020.89 1020.73 1020.55 1020.34 1020.14 1019.93 1019.73 1019.53 1019.34 1019.16 1018.97
1012.69 1012.26 1011.87 1011.52 1011.18 1010.87 1010.59 1010.37 1010.22 1010.19 1010.30 1010.59 1011.07 1011.73 1012.56 1013.53 1014.59 1015.68 1016.76 1017.77 1018.68 1019.46 1020.11 1020.63 1021.04 1021.34 1021.56 1021.71 1021.80 1021.85 1021.86 1021.82 1021.75 1021.64 1021.50 1021.34 1021.17 1020.98 1020.79 1020.58 1020.37 1020.15 1019.92 1019.69
1013.34 1012.93 1012.56 1012.21 1011.88 1011.56 1011.29 1011.06 1010.92 1010.90 1011.02 1011.30 1011.77 1012.42 1013.23 1014.17 1015.20 1016.27 1017.32 1018.31 1019.20 1019.98 1020.63 1021.14 1021.55 1021.85 1022.06 1022.21 1022.31 1022.36 1022.37 1022.35 1022.30 1022.23 1022.13 1022.01 1021.88 1021.72 1021.56 1021.37 1021.17 1020.94 1020.70 1020.45
1014.04 1013.64 1013.26 1012.89 1012.54 1012.21 1011.92 1011.69 1011.55 1011.52 1011.65 1011.95 1012.42 1013.07 1013.87 1014.79 1015.79 1016.81 1017.82 1018.76 1019.62 1020.36 1020.97 1021.46 1021.85 1022.14 1022.35 1022.50 1022.60 1022.67 1022.70 1022.71 1022.70 1022.66 1022.60 1022.52 1022.43 1022.32 1022.18 1022.02 1021.84 1021.64 1021.41 1021.15
1014.82 1014.44 1014.05 1013.66 1013.27 1012.91 1012.59 1012.33 1012.18 1012.15 1012.29 1012.59 1013.06 1013.70 1014.49 1015.38 1016.34 1017.31 1018.26 1019.14 1019.93 1020.61 1021.17 1021.63 1021.99 1022.26 1022.47 1022.63 1022.75 1022.84 1022.90 1022.94 1022.96 1022.95 1022.92 1022.88 1022.81 1022.73 1022.62 1022.49 1022.34 1022.16 1021.96 1021.73
1015.73 1015.38 1014.99 1014.58 1014.16 1013.76 1013.40 1013.11 1012.93 1012.89 1013.01 1013.30 1013.76 1014.39 1015.14 1015.99 1016.89 1017.79 1018.66 1019.46 1020.17 1020.79 1021.29 1021.71 1022.04 1022.30 1022.51 1022.68 1022.82 1022.93 1023.02 1023.08 1023.12 1023.13 1023.12 1023.08 1023.02 1022.95 1022.85 1022.74 1022.62 1022.47 1022.30 1022.12
1016.79 1016.49 1016.13 1015.72 1015.28 1014.84 1014.44 1014.11 1013.89 1013.82 1013.91 1014.17 1014.60 1015.18 1015.88 1016.66 1017.48 1018.30 1019.08 1019.79 1020.42 1020.96 1021.40 1021.77 1022.08 1022.33 1022.54 1022.72 1022.88 1023.01 1023.11 1023.18 1023.22 1023.23 1023.21 1023.16 1023.08 1023.00 1022.90 1022.79 1022.68 1022.56 1022.42 1022.28
Thickness
5526 5531 5539 5552 5559 5567 5571 5573 5577 5582 5583 5587 5593 5601 5606 5608 5612 5619 5623 5627 5630 5632 5635 5635 5636 5637 5637 5637 5637 5637 5637 5636 5636 5636 5636 5636 5635 5634 5633 5633 5632 5632 5632 5632
5516 5526 5540 5544 5546 5548 5555 5559 5564 5565 5570 5576 5583 5589 5596 5600 5604 5610 5615 5618 5621 5623 5625 5626 5627 5628 5630 5631 5631 5631 5631 5630 5630 5630 5630 5629 5628 5627 5626 5625 5624 5624 5624 5624
5516 5525 5529 5530 5531 5535 5542 5550 5555 5556 5557 5563 5569 5579 5586 5591 5594 5597 5603 5608 5613 5615 5617 5618 5619 5621 5622 5623 5624 5624 5624 5623 5623 5622 5621 5620 5619 5618 5618 5618 5617 5617 5617 5616
5504 5511 5516 5520 5524 5529 5531 5539 5542 5545 5549 5554 5561 5572 5585 5587 5586 5589 5594 5599 5603 5605 5608 5610 5612 5613 5614 5615 5615 5616 5616 5616 5615 5615 5615 5616 5616 5616 5615 5613 5611 5610 5609 5608
5494 5499 5506 5512 5519 5523 5525 5527 5530 5535 5539 5541 5549 5556 5581 5576 5578 5584 5588 5591 5594 5596 5598 5601 5602 5604 5605 5606 5606 5607 5607 5607 5607 5608 5608 5609 5609 5609 5607 5605 5604 5603 5601 5601
5484 5488 5495 5503 5508 5511 5512 5514 5515 5520 5525 5528 5547 5551 5571 5572 5576 5579 5580 5582 5583 5586 5588 5591 5593 5594 5595 5596 5596 5598 5599 5599 5599 5599 5600 5601 5601 5600 5599 5598 5597 5595 5594 5593
5471 5477 5482 5490 5493 5495 5506 5508 5505 5507 5512 5529 5538 5542 5560 5563 5563 5566 5568 5571 5573 5575 5577 5580 5582 5584 5586 5587 5588 5589 5591 5590 5590 5590 5591 5592 5592 5592 5591 5591 5589 5588 5586 5585
5467 5469 5473 5479 5488 5492 5501 5510 5513 5515 5520 5527 5522 5535 5548 5543 5545 5549 5552 5556 5559 5563 5566 5568 5571 5573 5576 5577 5579 5580 5582 5582 5581 5582 5582 5582 5582 5582 5582 5581 5580 5579 5578 5576
5465 5465 5464 5470 5476 5487 5490 5500 5506 5507 5508 5514 5523 5528 5531 5531 5534 5537 5539 5542 5546 5550 5553 5556 5559 5562 5565 5567 5569 5571 5572 5572 5572 5572 5572 5572 5572 5572 5571 5570 5569 5568 5568 5566
5455 5451 5454 5458 5467 5469 5483 5488 5490 5495 5501 5513 5518 5523 5532 5526 5526 5527 5528 5531 5534 5537 5541 5544 5547 5550 5552 5555 5557 5559 5560 5562 5562 5562 5562 5561 5561 5561 5560 5560 5559 5558 5557 5556
5444 5444 5443 5450 5456 5465 5469 5473 5482 5490 5498 5508 5512 5520 5514 5514 5514 5515 5517 5518 5521 5525 5528 5531 5534 5536 5539 5542 5544 5546 5548 5549 5550 5551 5551 5550 5550 5550 5549 5549 5548 5548 5547 5546
5431 5439 5437 5439 5443 5449 5461 5469 5475 5481 5477 5491 5506 5504 5494 5498 5499 5501 5502 5504 5506 5511 5514 5517 5520 5523 5525 5528 5530 5533 5535 5537 5538 5538 5539 5539 5539 5539 5539 5538 5537 5537 5537 5536
5423 5428 5431 5433 5433 5436 5444 5451 5457 5464 5469 5480 5493 5492 5482 5485 5487 5488 5490 5491 5494 5497 5500 5503 5507 5509 5512 5514 5517 5520 5522 5523 5524 5525 5527 5527 5528 5528 5528 5527 5526 5526 5526 5525
5415 5416 5429 5442 5445 5441 5438 5441 5447 5453 5463 5471 5480 5480 5477 5476 5476 5476 5477 5479 5482 5484 5487 5490 5493 5496 5498 5500 5503 5506 5507 5509 5510 5512 5514 5515 5516 5516 5516 5515 5515 5514 5514 5514
5405 5407 5410 5419 5426 5430 5432 5436 5439 5444 5456 5463 5468 5467 5468 5466 5466 5466 5466 5467 5469 5471 5473 5476 5479 5482 5484 5486 5489 5491 5493 5495 5497 5499 5501 5502 5502 5502 5503 5503 5503 5502 5502 5502
5390 5397 5403 5409 5416 5420 5421 5428 5433 5438 5443 5446 5448 5450 5453 5453 5454 5455 5456 5456 5458 5459 5460 5462 5465 5468 5470 5472 5475 5477 5479 5481 5484 5486 5487 5488 5489 5489 5490 5490 5491 5491 5491 5491
5381 5386 5398 5408 5407 5411 5412 5415 5422 5427 5431 5438 5445 5447 5441 5440 5440 5443 5445 5445 5447 5448 5448 5450 5452 5454 5456 5458 5461 5463 5465 5467 5470 5472 5473 5475 5476 5477 5478 5478 5479 5480 5480 5480
5368 5374 5384 5395 5397 5398 5405 5402 5408 5414 5416 5420 5426 5427 5427 5427 5427 5430 5432 5435 5436 5437 5437 5438 5439 5440 5442 5444 5447 5449 5451 5453 5455 5457 5459 5461 5463 5465 5466 5467 5468 5469 5469 5469
5366 5369 5378 5384 5390 5393 5393 5389 5391 5398 5402 5405 5409 5411 5412 5412 5414 5417 5418 5422 5424 5424 5425 5425 5426 5427 5429 5430 5433 5435 5437 5439 5441 5444 5445 5447 5449 5452 5453 5455 5457 5457 5457 5457
5355 5357 5369 5374 5385 5389 5385 5378 5377 5386 5395 5393 5396 5399 5401 5405 5416 5413 5406 5407 5409 5410 5410 5411 5412 5414 5416 5417 5420 5423 5425 5427 5428 5430 5432 5434 5436 5438 5441 5443 5444 5445 5445 5445
5348 5353 5358 5366 5371 5374 5364 5363 5372 5385 5388 5379 5382 5387 5390 5397 5401 5395 5393 5394 5395 5396 5397 5398 5399 5401 5402 5404 5407 5410 5412 5414 5414 5416 5418 5421 5423 5425 5428 5431 5433 5433 5434 5434
5342 5350 5347 5356 5364 5362 5351 5358 5364 5366 5365 5367 5370 5373 5375 5378 5379 5379 5380 5381 5382 5383 5384 5385 5387 5388 5389 5391 5395 5398 5399 5400 5402 5404 5407 5409 5412 5414 5416 5419 5421 5422 5422 5422
5328 5331 5339 5340 5345 5341 5339 5343 5346 5350 5353 5356 5359 5360 5363 5365 5366 5367 5367 5368 5370 5371 5372 5373 5374 5376 5377 5379 5382 5385 5387 5388 5390 5393 5396 5398 5400 5403 5405 5407 5409 5410 5411 5411
5320 5317 5325 5328 5331 5331 5332 5334 5337 5340 5343 5345 5347 5349 5352 5354 5355 5355 5355 5356 5358 5359 5360 5362 5364 5365 5366 5368 5369 5372 5375 5377 5380 5383 5385 5388 5390 5393 5395 5396 5398 5399 5400 5400
5313 5314 5319 5323 5326 5328 5328 5326 5328 5331 5333 5335 5337 5339 5341 5344 5344 5344 5345 5346 5347 5348 5349 5351 5353 5354 5355 5357 5359 5361 5364 5367 5370 5373 5375 5377 5379 5382 5384 5385 5386 5388 5389 5389
5303 5305 5314 5322 5318 5319 5320 5318 5320 5322 5324 5326 5328 5329 5331 5333 5334 5334 5334 5335 5336 5338 5339 5340 5342 5343 5345 5346 5348 5350 5352 5355 5359 5362 5365 5367 5369 5371 5373 5374 5376 5376 5377 5378